Terminal Aerodrome Forecast
Issued by NWS Charleston, WV

Current Version | Previous Version | Text Only | Print | Product List | Glossary Off
Versions: 1 2 3 4 5 6 7 8 9 10 11 12 13 14 15 16 17 18 19 20 21 22

011
FTUS41 KRLX 292339
TAFEKN
TAF
KEKN 292339Z 3000/3024 32008KT P6SM BKN050
     FM300200 VRB03KT P6SM BKN150
     FM300400 00000KT 5SM BR BKN150
     FM300700 00000KT 1/4SM FG BKN001
     FM301200 00000KT 5SM BR SCT001
     FM301400 VRB04KT P6SM BKN100
     FM301800 18004KT 6SM BR OVC040
     FM302000 18005KT 5SM SHRA BR OVC020=

USA.gov is the U.S. government's official web portal to all federal, state and local government web resources and services.